514  
ASUS41 KALY 270810  
RWRALY  
 
NEW YORK STATE HOURLY WEATHER ROUNDUP  
NATIONAL WEATHER SERVICE ALBANY NY  
400 AM EDT MON MAR 27 2017  
 
NOTE: "FAIR" INDICATES FEW OR NO CLOUDS BELOW 12,000 FEET WITH NO  
SIGNIFICANT WEATHER AND/OR NO S TO VISIBILITY
.  
 
NYZ032-033-038>043-046>054-057>066-NYZ062>081-082-084-270900-  
EAST  
 
 
CITY SKY/WX TMP DP RH WIND PRES REMARKS
 
ALBANY CLOUDY 36 31 82 S14 30.17F WCI 27  
GLENS FALLS LGT RAIN 35 31 85 CALM 30.16F FOG  
POUGHKEEPSIE CLOUDY 35 33 92 CALM 30.20F  
NEWBURGH LGT RAIN 36 36 100 E7 30.19F FOG WCI 30  
MONTGOMERY RAIN 36 34 92 NE6 30.18F FOG WCI 31  
WHITE PLAINS DRIZZLE 36 35 96 E9G18 30.18F FOG WCI 29  
ISLIP CLOUDY 39 39 100 E9 30.19F FOG WCI 33  
NEW YORK CITY DRIZZLE 40 37 89 NE10 30.20F FOG WCI 33  
CENTRAL PARK CLOUDY 38 37 97 NE7 30.22F FOG WCI 33  

 
 
NYZ005>009-017-018-044>046-055-056-270900-  
CENTRAL  
 
 
CITY SKY/WX TMP DP RH WIND PRES REMARKS
 
FULTON LGT RAIN 38 36 92 SE8 30.00F WCI 32  
SYRACUSE LGT RAIN 39 37 92 NE6 30.02F WCI 35  
ROME LGT RAIN 35 35 100 SE6 30.09F WCI 30  
ELMIRA CLOUDY 42 37 82 SE5 30.02F  
BINGHAMTON CLOUDY 34 34 100 S9 30.04F WCI 27  
MONTICELLO CLOUDY 32 30 93 E8 30.14F WCI 25  

 
 
NYZ026>034-041>043-087-270900-  
NORTH  
 
 
CITY SKY/WX TMP DP RH WIND PRES REMARKS
 
WATERTOWN LGT RAIN 43 41 93 S5 29.98F  
FORT DRUM NOT AVBL  
MASSENA CLOUDY 34 31 88 NE8 30.05F WCI 27  
SARANAC LAKE CLOUDY 35 35 100 SW5 30.00F WCI 31  
PLATTSBURGH CLOUDY 35 31 85 SE15 30.09F WCI 25  

 
 
NYZ001>004-010>016-019>021-085-270900-  
WEST  
 
 
CITY SKY/WX TMP DP RH WIND PRES REMARKS
 
NIAGARA FALLS CLOUDY 51 43 74 S9 29.88F  
BUFFALO CLOUDY 49 44 83 S9 29.89F  
DUNKIRK CLOUDY 51 44 77 S15G28 29.89S  
JAMESTOWN CLOUDY 45 41 87 S9 29.91F  
WELLSVILLE LGT RAIN 43 40 89 S9G18 29.97F FOG  
ROCHESTER CLOUDY 48 41 76 S12 29.93F  
PENN YAN CLOUDY 43 36 76 S12G18 29.98F  

 
 
KEY  
WCI = WIND CHILL INDEX  
VSB = VISIBILITY  
HX = HEAT INDEX  

 
 
 
CLICK HERE TO GO TO PREVIOUS BULLETINS.

The Nexlab NY Page
The Nexlab VT Page
The Nexlab MA Page
The Nexlab CT Page Main Text Page